Starlink 5539

operational
NORAD ID: 55747 Int'l Des: 2023-028 Owner: SPXS Country: US Constellation: starlink
LEOCIRCULAR

Starlink 5539について

説明を読み込み中...

リアルタイム位置

3D地球を読み込み中...

次回通過

高度履歴

Altitude vs Time

uPlot chart will show altitude changes over time

軌道要素

1 55747U 23028G 25353.27805432 -.00000744 00000-0 -54586-4 0 9991
2 55747 70.0003 87.2698 0003134 272.4389 87.6411 14.98333289153990
Epoch: Dec 19, 2025 • Age: 5 hours

現在のステータス

高度 576.2 km
速度 7.57 km/s
衛星直下点 28.18°N, 15.04°W
打ち上げ日 Mar 3, 2023
運用期間 2.7 years
タイプ internet

技術仕様

分類 Payload
質量 305.00 kg
乾燥質量 290.00 kg
総質量 305.00 kg
長さ 0.20 m
直径 2.80 m
スパン 9.00 m
形状 Box + pan
製造者 SPXS
バスタイプ Starlink
フェーズステータス In Orbit
所有者/国 SPXS/US

大規模コンステレーション

Loading constellations...